GEHYZ EGKA-EGV

Flight info

Callsign GEHYZ
Flight time N/A
Altitude 2000
Route H7 H4 VFR
Aircraft AS50/L-SDGRY/L

Departure

Time 2026-04-17 16:19
Airport Brighton City Airport (EGKA)

Arrival

Time N/A
Airport EGV
Time Latitude Longitude Altitude Speed Heading
2026-04-17 16:05 50.83493 -0.29082 12 ft 0 kts 345°
2026-04-17 16:16 50.83493 -0.29086 12 ft 0 kts 111°
2026-04-17 16:17 50.83489 -0.29052 23 ft 15 kts 128°
2026-04-17 16:17 50.83570 -0.28821 33 ft 38 kts 355°
2026-04-17 16:17 50.83670 -0.28959 17 ft 13 kts 311°
2026-04-17 16:17 50.83745 -0.29128 26 ft 27 kts 302°
2026-04-17 16:18 50.83856 -0.29331 16 ft 23 kts 20°
2026-04-17 16:18 50.83973 -0.29345 18 ft 10 kts 288°
2026-04-17 16:18 50.83957 -0.29475 42 ft 33 kts 194°
2026-04-17 16:18 50.83563 -0.29730 154 ft 81 kts 198°
2026-04-17 16:19 50.82981 -0.30098 362 ft 100 kts 197°
2026-04-17 16:19 50.82307 -0.29963 626 ft 108 kts 151°
2026-04-17 16:19 50.81806 -0.29002 866 ft 125 kts 117°
2026-04-17 16:19 50.81881 -0.27597 1173 ft 138 kts 65°
2026-04-17 16:20 50.82551 -0.26527 1477 ft 138 kts 28°
2026-04-17 16:20 50.83396 -0.25837 1849 ft 137 kts 22°
2026-04-17 16:20 50.84275 -0.25102 2079 ft 149 kts 23°
2026-04-17 16:20 50.85225 -0.24245 2036 ft 167 kts 25°
2026-04-17 16:21 50.86243 -0.23294 2005 ft 170 kts 27°
2026-04-17 16:21 50.87218 -0.22314 2013 ft 163 kts 29°
2026-04-17 16:21 50.88158 -0.21329 2028 ft 162 kts 31°
2026-04-17 16:21 50.89089 -0.20382 2014 ft 156 kts 31°
2026-04-17 16:22 50.90010 -0.19467 2006 ft 155 kts 30°
2026-04-17 16:22 50.90921 -0.18569 2005 ft 155 kts 30°
2026-04-17 16:22 50.91837 -0.17664 2003 ft 156 kts 30°
2026-04-17 16:22 50.92750 -0.16739 2001 ft 156 kts 33°
2026-04-17 16:23 50.93636 -0.15752 1994 ft 155 kts 35°
2026-04-17 16:23 50.94505 -0.14742 1998 ft 155 kts 36°
2026-04-17 16:23 50.95365 -0.13713 1999 ft 156 kts 37°
2026-04-17 16:23 50.96237 -0.12685 1997 ft 156 kts 33°
2026-04-17 16:24 50.97159 -0.11786 1996 ft 155 kts 27°
2026-04-17 16:24 50.98110 -0.10967 1978 ft 156 kts 26°
2026-04-17 16:24 50.99084 -0.10182 1976 ft 158 kts 22°
2026-04-17 16:24 51.00101 -0.09567 1973 ft 155 kts
2026-04-17 16:25 51.01165 -0.09562 1977 ft 154 kts 347°
2026-04-17 16:25 51.02221 -0.09882 1975 ft 155 kts 339°
2026-04-17 16:25 51.03268 -0.10324 1974 ft 156 kts 336°
2026-04-17 16:25 51.04310 -0.10819 1977 ft 157 kts 336°
2026-04-17 16:26 51.05350 -0.11323 1973 ft 156 kts 336°
2026-04-17 16:26 51.06404 -0.11841 1972 ft 160 kts 337°
2026-04-17 16:26 51.07469 -0.12353 1972 ft 160 kts 338°
2026-04-17 16:26 51.08506 -0.12829 1923 ft 145 kts 338°
2026-04-17 16:27 51.09408 -0.13281 1983 ft 132 kts 333°
2026-04-17 16:27 51.10265 -0.13755 1973 ft 128 kts 334°
2026-04-17 16:27 51.11059 -0.14204 1968 ft 114 kts 333°
2026-04-17 16:27 51.11758 -0.14580 1958 ft 95 kts 334°
2026-04-17 16:28 51.12319 -0.14876 1982 ft 78 kts 323°
2026-04-17 16:28 51.12543 -0.15488 1988 ft 62 kts 266°
2026-04-17 16:28 51.12533 -0.16176 1977 ft 61 kts 253°
2026-04-17 16:28 51.12209 -0.16461 1972 ft 65 kts 179°
2026-04-17 16:29 51.11941 -0.15803 1974 ft 85 kts 102°
2026-04-17 16:29 51.12221 -0.14861 1991 ft 107 kts 52°
2026-04-17 16:29 51.12893 -0.14264 1979 ft 115 kts
2026-04-17 16:29 51.13657 -0.14601 1987 ft 119 kts 324°
2026-04-17 16:30 51.14327 -0.15426 1942 ft 121 kts 297°
2026-04-17 16:30 51.14366 -0.16524 1963 ft 93 kts 241°
2026-04-17 16:30 51.13864 -0.16918 1965 ft 88 kts 177°
2026-04-17 16:30 51.13375 -0.16293 1976 ft 101 kts 124°
2026-04-17 16:31 51.13466 -0.15165 1976 ft 111 kts 59°
2026-04-17 16:31 51.14132 -0.14704 1978 ft 105 kts 345°
2026-04-17 16:31 51.14764 -0.15283 1992 ft 111 kts 309°
2026-04-17 16:31 51.15130 -0.15883 1977 ft 117 kts 302°
2026-04-17 16:32 51.15737 -0.16835 1971 ft 128 kts 312°
2026-04-17 16:32 51.16501 -0.17620 1970 ft 133 kts 322°
2026-04-17 16:32 51.17323 -0.18307 1973 ft 135 kts 325°
2026-04-17 16:32 51.18147 -0.19020 1972 ft 135 kts 322°
2026-04-17 16:33 51.18945 -0.19795 1974 ft 134 kts 320°
2026-04-17 16:33 51.19741 -0.20592 1975 ft 137 kts 319°
2026-04-17 16:33 51.20566 -0.21404 1972 ft 141 kts 321°
2026-04-17 16:33 51.21401 -0.22227 1971 ft 142 kts 321°
2026-04-17 16:34 51.22241 -0.23042 1976 ft 142 kts 321°
2026-04-17 16:34 51.23091 -0.23851 1976 ft 143 kts 322°
2026-04-17 16:34 51.24011 -0.24431 1970 ft 146 kts 348°
2026-04-17 16:34 51.25037 -0.24307 1977 ft 151 kts
2026-04-17 16:35 51.26075 -0.23897 1976 ft 157 kts 12°
2026-04-17 16:35 51.27126 -0.23388 1970 ft 158 kts 14°
2026-04-17 16:35 51.28166 -0.22922 1971 ft 153 kts
2026-04-17 16:35 51.29154 -0.22624 1961 ft 135 kts
2026-04-17 16:36 51.30050 -0.22413 1976 ft 127 kts
2026-04-17 16:36 51.30915 -0.22250 1979 ft 124 kts
2026-04-17 16:36 51.31773 -0.22082 1975 ft 124 kts
2026-04-17 16:36 51.32619 -0.21861 1969 ft 124 kts 16°
2026-04-17 16:37 51.33221 -0.20927 1960 ft 120 kts 73°
2026-04-17 16:37 51.33186 -0.19715 1962 ft 105 kts 128°
2026-04-17 16:37 51.32647 -0.19076 1976 ft 97 kts 165°
2026-04-17 16:37 51.31986 -0.18835 1973 ft 97 kts 179°
2026-04-17 16:38 51.31322 -0.18847 1971 ft 96 kts 189°
2026-04-17 16:38 51.30713 -0.19115 1965 ft 91 kts 223°
2026-04-17 16:38 51.30561 -0.20037 1972 ft 94 kts 278°
2026-04-17 16:38 51.31044 -0.20821 1976 ft 108 kts 323°
2026-04-17 16:39 51.31766 -0.21249 1974 ft 112 kts 335°
2026-04-17 16:39 51.32527 -0.21538 1968 ft 117 kts 352°
2026-04-17 16:39 51.33267 -0.20988 1962 ft 120 kts 51°
2026-04-17 16:39 51.33488 -0.19792 1962 ft 110 kts 108°
2026-04-17 16:40 51.33082 -0.18911 1959 ft 97 kts 161°
2026-04-17 16:40 51.32437 -0.18725 1972 ft 94 kts 184°
2026-04-17 16:40 51.31781 -0.18749 1969 ft 94 kts 187°
2026-04-17 16:40 51.31127 -0.18801 1973 ft 95 kts 188°
2026-04-17 16:41 51.30572 -0.19209 1966 ft 89 kts 235°
2026-04-17 16:41 51.30571 -0.20172 1973 ft 97 kts 291°
2026-04-17 16:41 51.31181 -0.20746 1973 ft 113 kts 346°
2026-04-17 16:41 51.31982 -0.20656 1974 ft 118 kts
2026-04-17 16:42 51.32796 -0.20411 1973 ft 119 kts
2026-04-17 16:42 51.33618 -0.20315 1975 ft 119 kts 344°
2026-04-17 16:42 51.34411 -0.20792 1961 ft 126 kts 323°
2026-04-17 16:42 51.35198 -0.21477 1951 ft 133 kts 326°
2026-04-17 16:43 51.36097 -0.21968 1951 ft 140 kts 337°
2026-04-17 16:43 51.37061 -0.22282 1950 ft 143 kts 342°
2026-04-17 16:43 51.38058 -0.22504 1765 ft 148 kts 347°
2026-04-17 16:43 51.39069 -0.22684 1459 ft 141 kts 349°
2026-04-17 16:44 51.40017 -0.22892 1208 ft 134 kts 344°
2026-04-17 16:44 51.40901 -0.23201 1021 ft 119 kts 340°
2026-04-17 16:44 51.41677 -0.23572 1088 ft 123 kts 333°
2026-04-17 16:44 51.42500 -0.24052 1075 ft 128 kts 330°
2026-04-17 16:45 51.43325 -0.24631 1072 ft 131 kts 327°
2026-04-17 16:45 51.44227 -0.24984 1073 ft 139 kts 354°
2026-04-17 16:45 51.45178 -0.24554 1069 ft 146 kts 23°
2026-04-17 16:45 51.45975 -0.23568 1076 ft 145 kts 50°
2026-04-17 16:46 51.46450 -0.22198 1149 ft 133 kts 71°
2026-04-17 16:46 51.46561 -0.20728 1218 ft 133 kts 107°
2026-04-17 16:46 51.46441 -0.19343 1017 ft 115 kts 103°
2026-04-17 16:46 51.46666 -0.18313 726 ft 82 kts 50°
2026-04-17 16:47 51.46995 -0.18070 470 ft 24 kts
2026-04-17 16:47 51.47218 -0.18055 1021 ft 35 kts 234°
2026-04-17 16:47 51.47261 -0.17853 636 ft 21 kts 215°
2026-04-17 16:47 51.47064 -0.17945 142 ft 21 kts 202°
2026-04-17 16:48 51.46986 -0.17910 24 ft 16 kts 131°
2026-04-17 16:48 51.46981 -0.17870 19 ft 0 kts 213°
2026-04-17 16:48 51.46978 -0.17873 19 ft 0 kts 248°
2026-04-17 17:00 51.46977 -0.17872 16 ft 1 kts 280°
2026-04-17 17:00 51.47117 -0.17957 123 ft 64 kts 15°
2026-04-17 17:01 51.47649 -0.17762 610 ft 94 kts 13°
2026-04-17 17:01 51.48145 -0.16836 851 ft 132 kts 78°
2026-04-17 17:01 51.48428 -0.15330 825 ft 150 kts 83°
2026-04-17 17:01 51.48377 -0.13679 795 ft 148 kts 84°
2026-04-17 17:02 51.49000 -0.12433 811 ft 144 kts 23°
2026-04-17 17:02 51.49945 -0.12154 879 ft 136 kts 356°
2026-04-17 17:02 51.50788 -0.11631 967 ft 127 kts 62°
2026-04-17 17:02 51.50988 -0.10196 960 ft 132 kts 102°
2026-04-17 17:03 51.50812 -0.08752 926 ft 138 kts 107°
2026-04-17 17:03 51.50465 -0.07358 986 ft 133 kts 129°
2026-04-17 17:03 51.50240 -0.05919 1100 ft 143 kts 80°
2026-04-17 17:03 51.50783 -0.04510 1010 ft 143 kts 65°
2026-04-17 17:04 51.50631 -0.03269 844 ft 108 kts 149°
2026-04-17 17:04 51.49974 -0.03048 771 ft 87 kts 185°
2026-04-17 17:04 51.49428 -0.03063 597 ft 74 kts 186°
2026-04-17 17:04 51.49007 -0.02947 392 ft 52 kts 153°
2026-04-17 17:05 51.48980 -0.02704 90 ft 26 kts 51°
2026-04-17 17:05 51.49043 -0.02577 51 ft 8 kts 83°
2026-04-17 17:05 51.49061 -0.02538 16 ft 0 kts 60°
2026-04-17 17:12 51.49059 -0.02544 31 ft 10 kts 241°
2026-04-17 17:13 51.49117 -0.02764 331 ft 44 kts 342°
2026-04-17 17:13 51.49593 -0.02889 573 ft 93 kts 352°
2026-04-17 17:13 51.50351 -0.02933 701 ft 118 kts 347°
2026-04-17 17:13 51.50849 -0.03812 865 ft 109 kts 275°
2026-04-17 17:14 51.50612 -0.04867 892 ft 107 kts 229°
2026-04-17 17:14 51.50244 -0.05901 889 ft 113 kts 264°
2026-04-17 17:14 51.50495 -0.07136 1009 ft 121 kts 283°
2026-04-17 17:15 51.50982 -0.09867 924 ft 129 kts 274°
2026-04-17 17:15 51.50993 -0.11276 931 ft 123 kts 251°
2026-04-17 17:15 51.50427 -0.12096 1016 ft 110 kts 193°
2026-04-17 17:15 51.49611 -0.12243 866 ft 123 kts 191°
2026-04-17 17:16 51.48832 -0.12702 884 ft 115 kts 215°
2026-04-17 17:16 51.48463 -0.13753 954 ft 114 kts 257°
2026-04-17 17:16 51.48473 -0.15028 959 ft 112 kts 255°
2026-04-17 17:16 51.48315 -0.16227 1009 ft 107 kts 252°
2026-04-17 17:17 51.48093 -0.17307 1044 ft 106 kts 230°
2026-04-17 17:17 51.47648 -0.17740 840 ft 121 kts 199°
2026-04-17 17:17 51.46874 -0.18184 888 ft 116 kts 207°
2026-04-17 17:17 51.46478 -0.19268 878 ft 122 kts 252°
2026-04-17 17:18 51.46556 -0.20562 1054 ft 114 kts 282°
2026-04-17 17:18 51.46923 -0.21737 1015 ft 129 kts 309°
2026-04-17 17:18 51.47726 -0.22404 994 ft 140 kts 341°
2026-04-17 17:18 51.48682 -0.22711 987 ft 131 kts 320°
2026-04-17 17:19 51.48994 -0.23873 943 ft 116 kts 255°
2026-04-17 17:19 51.48562 -0.24863 895 ft 109 kts 208°
2026-04-17 17:19 51.47774 -0.25023 787 ft 116 kts 190°
2026-04-17 17:19 51.47173 -0.25764 801 ft 114 kts 248°
2026-04-17 17:20 51.47382 -0.26958 833 ft 124 kts 302°
2026-04-17 17:20 51.48158 -0.27639 916 ft 132 kts 330°
2026-04-17 17:20 51.49040 -0.28196 1002 ft 137 kts 329°
2026-04-17 17:20 51.49905 -0.28777 1284 ft 135 kts 330°
2026-04-17 17:21 51.50834 -0.29111 1519 ft 139 kts 345°
2026-04-17 17:21 51.51842 -0.29256 1542 ft 152 kts 350°
2026-04-17 17:21 51.52865 -0.29636 1522 ft 149 kts 319°
2026-04-17 17:21 51.53324 -0.30967 1546 ft 135 kts 272°
2026-04-17 17:22 51.53383 -0.32482 1533 ft 137 kts 265°
2026-04-17 17:22 51.53501 -0.34019 1530 ft 140 kts 275°
2026-04-17 17:22 51.53791 -0.35534 1527 ft 143 kts 282°
2026-04-17 17:22 51.54149 -0.37030 1529 ft 144 kts 284°
2026-04-17 17:23 51.54566 -0.38494 1528 ft 143 kts 286°
2026-04-17 17:23 51.54860 -0.39973 1528 ft 136 kts 272°
2026-04-17 17:23 51.55186 -0.41418 1528 ft 145 kts 295°
2026-04-17 17:23 51.55964 -0.42513 1532 ft 152 kts 317°
2026-04-17 17:24 51.56861 -0.43426 1534 ft 153 kts 319°
2026-04-17 17:24 51.57774 -0.44314 1532 ft 153 kts 321°
2026-04-17 17:24 51.58670 -0.45226 1532 ft 152 kts 320°
2026-04-17 17:24 51.59554 -0.46170 1532 ft 153 kts 319°
2026-04-17 17:25 51.60424 -0.47168 1531 ft 153 kts 311°
2026-04-17 17:25 51.61088 -0.48463 1530 ft 149 kts 296°
2026-04-17 17:25 51.61586 -0.49913 1528 ft 147 kts 289°
2026-04-17 17:25 51.61978 -0.51402 1527 ft 143 kts 284°
2026-04-17 17:26 51.62352 -0.52864 1553 ft 139 kts 285°
2026-04-17 17:26 51.62727 -0.54275 1697 ft 138 kts 285°
2026-04-17 17:26 51.63112 -0.55693 1795 ft 139 kts 285°
2026-04-17 17:26 51.63519 -0.57119 1927 ft 141 kts 286°
2026-04-17 17:27 51.63951 -0.58556 1983 ft 147 kts 287°
2026-04-17 17:27 51.64402 -0.60067 1972 ft 152 kts 287°
2026-04-17 17:27 51.64837 -0.61593 1959 ft 151 kts 287°
2026-04-17 17:27 51.65256 -0.63122 1965 ft 148 kts 285°
2026-04-17 17:28 51.65652 -0.64631 1967 ft 146 kts 285°
2026-04-17 17:28 51.66038 -0.66132 1966 ft 144 kts 284°
2026-04-17 17:28 51.66421 -0.67615 1966 ft 143 kts 284°
2026-04-17 17:28 51.66805 -0.69078 1965 ft 141 kts 284°
2026-04-17 17:29 51.67198 -0.70515 1965 ft 140 kts 285°
2026-04-17 17:29 51.67604 -0.71947 1966 ft 141 kts 285°
2026-04-17 17:29 51.68016 -0.73397 1965 ft 144 kts 286°
2026-04-17 17:29 51.68433 -0.74866 1963 ft 145 kts 286°
2026-04-17 17:30 51.68848 -0.76345 1965 ft 145 kts 286°
2026-04-17 17:30 51.69257 -0.77824 1964 ft 144 kts 285°
2026-04-17 17:30 51.69661 -0.79310 1965 ft 146 kts 285°
2026-04-17 17:30 51.70065 -0.80817 1962 ft 147 kts 285°
2026-04-17 17:31 51.70468 -0.82327 1963 ft 147 kts 285°
2026-04-17 17:31 51.70870 -0.83834 1958 ft 145 kts 285°
2026-04-17 17:31 51.71272 -0.85294 1954 ft 141 kts 285°
2026-04-17 17:31 51.71678 -0.86725 1956 ft 140 kts 285°
2026-04-17 17:32 51.72088 -0.88152 1951 ft 139 kts 286°
2026-04-17 17:32 51.72491 -0.89567 1954 ft 139 kts 285°
2026-04-17 17:32 51.72892 -0.90995 1956 ft 141 kts 286°
2026-04-17 17:32 51.73295 -0.92458 1955 ft 144 kts 285°
2026-04-17 17:33 51.73701 -0.93949 1947 ft 146 kts 285°
2026-04-17 17:33 51.74106 -0.95452 1945 ft 146 kts 285°
2026-04-17 17:33 51.74510 -0.96954 1953 ft 145 kts 282°
2026-04-17 17:33 51.74923 -0.98437 1949 ft 145 kts 285°
2026-04-17 17:34 51.75353 -0.99919 1945 ft 147 kts 285°
2026-04-17 17:34 51.75795 -1.01412 1945 ft 148 kts 285°
2026-04-17 17:34 51.76238 -1.02923 1943 ft 149 kts 285°
2026-04-17 17:34 51.76668 -1.04425 1943 ft 146 kts 284°
2026-04-17 17:35 51.77078 -1.05920 1948 ft 145 kts 284°
2026-04-17 17:35 51.77458 -1.07428 1946 ft 145 kts 283°
2026-04-17 17:35 51.77825 -1.08950 1966 ft 146 kts 282°
2026-04-17 17:35 51.78194 -1.10463 1965 ft 144 kts 282°
2026-04-17 17:36 51.78557 -1.11960 1964 ft 142 kts 282°
2026-04-17 17:36 51.78914 -1.13449 1967 ft 143 kts 282°
2026-04-17 17:36 51.79274 -1.14950 1967 ft 143 kts 282°
2026-04-17 17:36 51.79642 -1.16436 1966 ft 141 kts 282°
2026-04-17 17:37 51.80007 -1.17883 1971 ft 138 kts 282°
2026-04-17 17:37 51.80366 -1.19316 1984 ft 138 kts 282°
2026-04-17 17:37 51.80731 -1.20772 1977 ft 141 kts 282°
2026-04-17 17:37 51.81096 -1.22242 1970 ft 141 kts 282°
2026-04-17 17:38 51.81460 -1.23699 1965 ft 139 kts 282°
2026-04-17 17:38 51.81861 -1.25131 1966 ft 144 kts 293°
2026-04-17 17:38 51.82669 -1.26172 1971 ft 157 kts 327°
2026-04-17 17:38 51.83764 -1.26503 1974 ft 162 kts 348°
2026-04-17 17:39 51.84882 -1.26600 1948 ft 160 kts 352°
2026-04-17 17:39 51.85786 -1.27102 1953 ft 118 kts 310°
2026-04-17 17:39 51.86236 -1.27976 1982 ft 89 kts 287°
2026-04-17 17:39 51.86481 -1.28842 1947 ft 84 kts 278°
2026-04-17 17:40 51.86650 -1.29745 1876 ft 82 kts 272°
2026-04-17 17:40 51.86658 -1.30615 1786 ft 75 kts 246°
2026-04-17 17:40 51.86313 -1.31272 1452 ft 84 kts 206°
2026-04-17 17:40 51.85703 -1.31416 1050 ft 89 kts 192°
2026-04-17 17:41 51.85126 -1.31583 771 ft 81 kts 199°
2026-04-17 17:41 51.84608 -1.31722 525 ft 66 kts 205°
2026-04-17 17:41 51.84208 -1.31839 289 ft 46 kts 193°
2026-04-17 17:41 51.84004 -1.31875 285 ft 25 kts 121°
2026-04-17 17:42 51.83926 -1.31612 271 ft 27 kts 110°
2026-04-17 17:42 51.83835 -1.31354 280 ft 26 kts 170°
2026-04-17 17:42 51.83688 -1.31297 283 ft 21 kts 211°
2026-04-17 17:42 51.83560 -1.31380 274 ft 17 kts 209°
2026-04-17 17:43 51.83465 -1.31451 273 ft 9 kts 277°
2026-04-17 17:43 51.83470 -1.31508 267 ft 3 kts 307°
2026-04-17 17:43 51.83472 -1.31515 261 ft 0 kts 307°